Location: 3 Angels Observatory
(30.5437°N, 88.5068°W)
Time: 15:15:35
(UTC-05:00)

Daily predictions for brighter satellites

Satellite Brightness Start Highest point End
(mag) Time Altitude Azimuth Time Altitude Azimuth Time Altitude Azimuth
Meteor 1-29 2.9 19:42:59 10° NNE 19:46:27 86° E 19:49:55 10° SSW
IUS-26 SRM-1 3.4 19:45:21 10° WSW 19:46:54 19° S 19:48:37 10° SE
Cosmos 1633 2.5 19:44:53 10° S 19:48:32 80° E 19:52:12 10° N
Centaur D-1A AC-32 2.8 19:44:22 10° WSW 19:50:49 47° S 19:53:54 10° ESE
Cosmos 1934 Rocket 4.2 19:47:46 10° SSE 19:53:31 46° E 19:59:23 10° NNE
ATLAS 3B CENTAUR R/B 0.3 19:51:42 10° WSW 19:53:56 41° S 19:55:33 11° ESE
Resurs 01 Rocket 1.6 19:49:38 10° SSE 19:54:01 72° ENE 19:58:27 10° N
HJ-1C 3.3 19:54:31 10° SSE 19:57:46 85° E 20:01:03 10° N
Hubble Space Telescope 1.0 19:55:06 10° W 19:59:11 60° S 20:03:00 12° ESE
Cosmos 1777 Rocket 4.4 20:00:33 10° N 20:05:34 44° ENE 20:10:35 10° SE
EP 1 4.1 20:04:06 10° SSW 20:06:46 87° WNW 20:09:15 10° NNE
Cosmos 1544 Rocket 3.5 20:05:09 10° S 20:09:29 73° E 20:13:52 10° N
Cosmos 1536 3.8 20:06:03 10° SSW 20:09:55 52° W 20:13:51 10° N
USA 186 2.9 20:09:57 15° ESE 20:11:43 23° ENE 20:14:13 10° NNE
FENGYUN 3A 3.9 20:07:04 10° SSE 20:12:10 48° ENE 20:17:18 10° N
Tiangong 1 4.1 20:11:35 10° NNW 20:12:18 11° N 20:13:02 10° N
Cosmos 1346 Rocket 3.6 20:09:35 10° NNE 20:13:05 30° ENE 20:15:55 14° SE
OTV 4 2.6 20:12:05 10° NW 20:14:21 19° N 20:16:35 10° NE
Cosmos 2208 Rocket 4.0 20:09:23 10° S 20:14:39 79° ESE 20:20:01 10° NNE
Cosmos 2227 Rocket 3.3 20:10:24 10° N 20:15:06 26° ENE 20:18:20 16° ESE
Cosmos 1656 4.3 20:11:54 10° SSE 20:16:54 33° ESE 20:21:52 10° NE
Meteor 1-5 Rocket 4.0 20:13:05 10° S 20:18:21 80° E 20:23:45 10° N
NOSS 3-4 (A) 4.3 20:15:55 10° NNW 20:22:42 45° NE 20:28:01 18° ESE
NOSS 3-4 (C) 4.3 20:16:03 10° NNW 20:22:49 44° NE 20:28:06 18° ESE
Spot 2 Rocket 4.4 20:19:36 10° S 20:24:33 51° W 20:29:30 10° NNW
Cosmos 2297 Rocket 3.3 20:26:09 10° N 20:30:45 25° ENE 20:32:48 20° E
ATLAS 2A CENTAUR R/B 2.3 20:30:22 10° W 20:34:06 21° SSW 20:35:05 17° S
Envisat 4.3 20:34:14 20° E 20:35:11 21° ENE 20:38:55 10° NNE
MDS-1 4.4 20:36:20 10° WSW 20:38:20 47° SSE 20:38:58 39° SE
Cosmos 1605 Rocket 4.0 20:32:03 10° S 20:38:24 79° E 20:44:43 10° N
CZ-4B DEB 4.4 20:36:53 18° SSE 20:39:26 81° ENE 20:43:04 10° N
CZ-4B DEB 4.0 20:37:48 10° S 20:40:55 42° W 20:44:03 10° NNW
OAO 2 Rocket 3.6 20:40:06 10° W 20:45:05 65° NNW 20:48:32 20° ENE
Cosmos 1975 2.7 20:50:42 10° S 20:54:46 86° E 20:58:53 10° N
Iridium 4 Rocket 3.3 20:50:37 10° N 20:55:30 55° E 20:56:49 40° SE
Cosmos 1697 Rocket 2.6 20:58:05 10° S 21:03:41 67° ESE 21:09:17 10° NNE
H-2A R/B 3.6 21:06:31 21° NE 21:06:31 21° NE 21:08:28 10° NNE
BREEZE-M DEB (TANK) 4.3 20:59:59 10° WNW 21:05:59 25° WSW 21:07:56 16° SSW
ALOS 3.7 21:03:42 10° SSW 21:07:59 36° W 21:12:18 10° NNW
ERS-1 Rocket 2.9 21:07:44 51° SE 21:08:46 63° ENE 21:13:44 10° N
Lacrosse 5 rocket 2.8 21:07:15 10° N 21:09:24 22° NNE 21:09:24 22° NNE
H-2A R/B 4.4 21:08:14 13° SSW 21:11:08 32° W 21:14:40 10° NNW
Cosmos 1626 Rocket 3.5 21:10:36 10° N 21:15:00 85° W 21:15:36 65° S
deb Chang Zheng 4 4.1 21:14:56 10° NNE 21:18:16 48° NE 21:18:16 48° NE
Cosmos 1898 Rocket 4.0 21:14:33 10° N 21:19:08 42° ENE 21:19:08 42° ENE
Cosmos 1461 3.0 21:17:48 10° NNW 21:21:13 63° NNW 21:21:13 63° NNW
Cosmos 1459 Rocket 3.8 21:21:23 47° SSE 21:23:06 70° E 21:29:09 10° N
Cosmos 1602 Rocket 3.8 21:18:59 10° NNW 21:23:24 66° W 21:24:04 57° SW
Nimbus 7 Rocket 4.3 21:19:35 10° NNE 21:25:40 74° ESE 21:27:55 41° S
Cosmos 1980 Rocket 2.4 21:26:51 51° ENE 21:26:51 51° ENE 21:31:23 10° NNE
Cosmos 1939 Rocket 3.4 21:27:37 56° N 21:27:37 56° N 21:30:56 10° N
Cosmos 468 Rocket 4.4 21:28:05 10° SSW 21:33:08 61° WNW 21:38:13 10° N
SPOT 5 3.7 21:41:21 44° NNE 21:41:21 44° NNE 21:44:55 10° N
Hubble Space Telescope 2.9 21:36:35 10° W 21:38:23 21° WSW 21:38:23 21° WSW
Lacrosse 5 3.6 21:36:23 10° N 21:39:26 21° NNE 21:39:26 21° NNE
Cosmos 1814 Rocket 4.4 21:37:26 19° SSW 21:41:19 63° WNW 21:46:36 10° N
Cosmos 1802 Rocket 4.0 21:47:44 62° SSW 21:48:52 83° W 21:55:20 10° N
OTV 4 4.1 21:48:12 10° NW 21:48:16 11° NW 21:48:16 11° NW
Delta 2 Rocket 4.5 21:47:03 10° WNW 21:51:17 53° WNW 21:51:17 53° WNW
Cosmos 2227 Rocket 3.5 21:54:06 10° NW 21:59:05 33° WSW 22:00:12 30° SW
Cosmos 2016 Rocket 4.2 22:07:40 67° NW 22:07:40 67° NW 22:13:22 10° N
CZ-3C R/B 3.5 21:47:51 10° W 22:09:23 37° SSW 22:09:52 36° SSW
Envisat 4.4 22:14:26 33° W 22:14:26 33° W 22:18:30 10° NNW
Cosmos 2297 Rocket 3.4 22:09:43 10° NW 22:14:38 34° W 22:14:38 34° W
H-2A R/B 4.4 22:19:51 14° NNE 22:19:51 14° NNE 22:20:35 10° N
Milstar 3 Cent rocket 4.2 23:03:01 10° W 23:14:46 49° WSW 23:14:46 49° WSW
